User: anonymous   Login
Location: Edinburgh
(55.9500°N, 3.1600°W)
Time: 14:05:17
(UTC+01:00)
Language:

Tiangong 2 - Orbit

View from above orbital plane
View from above orbital plane
View from above satellite
View from above satellite

Ground track
Ground track

The orbit data is extracted from the following two-line orbital elements,

1 41765U 16057A   18227.09574074  .00002810  00000-0  39481-4 0  9998
2 41765  42.7852 350.0882 0008400 308.0367  33.1736 15.59224882109210
Epoch (UTC): 15 August 2018 02:17:52
Eccentricity: 0.0008400
inclination: 42.7852°
perigee height: 384 km
apogee height: 395 km
right ascension of ascending node: 350.0882°
argument of perigee: 308.0367°
revolutions per day: 15.59224882
mean anomaly at epoch: 33.1736°
orbit number at epoch: 10921

The dashed part of the orbit path shows where the satellite is in the earth's shadow,  

DLR